QZS-4 (MICHIBIKI-4)

Last updated on Fri Jul 11 2025 00:02:45 GMT+0000 (Coordinated Universal Time)

1 42965U 17062A 25191.30171324 -.00000335 00000+0 00000+0 0 9991 2 42965 40.3162 347.8530 0744959 271.9338 271.5595 1.00244399 28382
UTC large
Height (km)
Speed (km/s)
/
Latitude / Longitude
Inclination (degrees)
Orbital Period (minutes)
Azimuth
Elevation
Range (km)
Doppler Factor

Next 0 passes for location: London (51.5072 / 0.1276)

Sorry there are no passes over London.